Temp
10 10 10 9 9 9 9 9 9 9 9 9 8 8 8 8 8 8 7 7 7 7 7 7 7 7 6 6 6 6 6 6 6 6 6 6 6 6 5 5 5 5 5 5 4 4 4 4 4 4 4 4 4 4 4 4 4 4 4 4 3 3 3 2 2 2 2 2 1
10 10 9 9 9 9 9 9 9 9 9 8 8 8 8 8 7 7 7 7 7 7 7 7 6 6 6 6 6 6 6 6 6 6 6 5 5 5 5 5 5 4 4 4 4 4 4 4 4 4 4 4 4 4 4 4 4 4 3 3 3 3 2 2 2 2 1 1 1
9 9 9 9 9 9 9 9 9 8 8 8 8 8 7 7 7 7 7 7 7 7 7 6 6 6 6 6 6 6 6 6 6 5 5 5 5 5 5 4 4 4 4 4 4 4 4 4 4 4 4 4 4 4 4 4 3 3 3 3 2 2 2 2 1 1 1 1 0
9 9 9 9 9 9 9 8 8 8 8 8 7 7 7 7 7 7 7 7 7 6 6 6 6 6 6 6 6 6 6 5 5 5 5 5 5 4 4 4 4 4 4 4 4 4 4 4 4 4 4 4 3 3 3 3 3 3 2 2 2 1 1 1 1 0 0 0 -0
9 9 9 9 9 8 8 8 8 8 8 7 7 7 7 7 7 7 7 7 6 6 6 6 6 6 6 6 6 5 5 5 5 5 5 5 4 4 4 4 4 4 4 4 4 4 4 4 4 4 3 3 3 3 3 3 2 2 2 1 1 1 1 0 0 -0 -0 -0 -1
9 9 8 8 8 8 8 8 8 8 7 7 7 7 7 7 7 7 6 6 6 6 6 6 6 6 6 5 5 5 5 5 5 5 4 4 4 4 4 4 4 4 4 4 4 4 4 4 3 3 3 3 3 3 2 2 2 1 1 1 1 0 0 -0 -0 -1 -1 -1 -1
8 8 8 8 8 8 8 8 8 7 7 7 7 7 7 7 7 6 6 6 6 6 6 6 6 5 5 5 5 5 5 5 4 4 4 4 4 4 4 4 4 4 4 4 4 4 3 3 3 3 3 2 2 2 2 1 1 1 0 0 0 -0 -0 -1 -1 -1 -1 -1 -1
8 8 8 8 8 8 8 8 7 7 7 7 7 7 7 6 6 6 6 6 6 6 5 5 5 5 5 5 5 4 4 4 4 4 4 4 4 4 4 4 4 4 4 4 3 3 3 3 2 2 2 2 2 1 1 1 0 0 -0 -0 -0 -1 -1 -1 -1 -1 -1 -1 -2
8 8 8 8 8 8 8 7 7 7 7 7 7 6 6 6 6 6 6 6 5 5 5 5 5 5 4 4 4 4 4 4 4 4 4 4 4 4 4 4 4 4 4 3 3 3 2 2 2 2 1 1 1 1 0 0 -0 -0 -1 -1 -1 -1 -1 -1 -1 -2 -2 -2 -2
8 8 8 8 8 8 7 7 7 7 7 7 6 6 6 6 6 6 5 5 5 5 5 4 4 4 4 4 4 4 4 4 4 4 4 4 4 4 4 4 4 3 3 3 2 2 2 2 1 1 1 1 0 0 -0 -0 -1 -1 -1 -1 -1 -1 -1 -2 -2 -2 -2 -2 -2
8 8 8 8 8 7 7 7 7 7 6 6 6 6 6 6 5 5 5 5 5 4 4 4 4 4 4 4 4 4 4 4 4 4 4 4 4 4 4 3 3 3 3 2 2 2 1 1 1 1 0 0 -0 -0 -1 -1 -1 -1 -1 -2 -2 -2 -2 -2 -2 -2 -2 -2 -2
8 8 8 7 7 7 7 7 7 6 6 6 6 6 6 5 5 5 5 5 4 4 4 4 4 4 4 4 4 4 4 4 4 4 4 4 4 3 3 3 3 3 2 2 2 1 1 1 0 0 -0 -0 -1 -1 -1 -1 -1 -2 -2 -2 -2 -2 -2 -2 -2 -2 -2 -2 -2
8 8 7 7 7 7 7 7 6 6 6 6 6 6 5 5 5 5 4 4 4 4 4 4 4 4 4 4 4 4 4 4 4 4 4 3 3 3 3 3 2 2 2 2 1 1 0 0 -0 -0 -1 -1 -1 -1 -1 -2 -2 -2 -2 -2 -2 -2 -2 -2 -2 -2 -2 -2 -2
8 7 7 7 7 7 7 6 6 6 6 6 5 5 5 5 5 5 4 4 4 4 4 4 4 4 4 4 4 4 4 4 4 3 3 3 3 3 3 2 2 2 1 1 1 0 0 -0 -0 -1 -1 -1 -1 -1 -2 -2 -2 -2 -2 -2 -2 -2 -2 -2 -2 -2 -2 -2 -3
7 7 7 7 7 6 6 6 6 6 6 5 5 5 5 5 5 4 4 4 4 4 4 4 4 4 4 4 4 4 3 3 3 3 3 3 3 2 2 2 2 1 1 1 0 0 -0 -0 -1 -1 -1 -1 -2 -2 -2 -2 -2 -2 -2 -2 -2 -2 -2 -2 -2 -2 -3 -3 -3
7 7 7 7 6 6 6 6 6 6 5 5 5 5 5 5 5 4 4 4 4 4 4 4 4 4 4 4 3 3 3 3 3 3 3 2 2 2 2 1 1 1 1 0 0 -0 -0 -1 -1 -1 -1 -2 -2 -2 -2 -2 -2 -2 -2 -2 -2 -2 -2 -2 -2 -3 -3 -3 -3
7 7 6 6 6 6 6 6 6 5 5 5 5 5 5 5 5 4 4 4 4 4 4 4 4 4 4 3 3 3 3 3 3 2 2 2 2 1 1 1 1 0 0 -0 -0 -0 -0 -1 -1 -1 -2 -2 -2 -2 -2 -2 -2 -2 -2 -2 -2 -2 -2 -2 -3 -3 -3 -3 -4
7 6 6 6 6 6 6 6 5 5 5 5 5 5 5 5 5 5 4 4 4 4 4 4 4 3 3 3 3 3 3 3 2 2 2 2 1 1 1 1 0 0 -0 -0 -0 -1 -1 -1 -1 -2 -2 -2 -2 -2 -2 -2 -2 -2 -2 -2 -2 -2 -3 -3 -3 -3 -3 -4 -4
6 6 6 6 6 6 5 5 5 5 5 5 5 5 5 5 5 5 4 4 4 4 4 4 3 3 3 3 3 3 2 2 2 2 1 1 1 1 0 0 0 -0 -0 -0 -0 -1 -1 -1 -1 -2 -2 -2 -2 -2 -2 -2 -2 -2 -2 -3 -3 -3 -3 -3 -3 -4 -4 -4 -4
6 6 6 6 6 5 5 5 5 5 5 5 5 5 5 5 5 4 4 4 4 4 4 3 3 3 3 3 2 2 2 2 2 1 1 1 1 0 0 0 -0 -0 -0 -0 -1 -1 -1 -1 -2 -2 -2 -2 -2 -2 -2 -3 -3 -3 -3 -3 -3 -3 -3 -4 -4 -4 -4 -4 -4
6 6 6 5 5 5 5 5 5 5 5 5 5 5 5 4 4 4 4 4 4 4 3 3 3 3 2 2 2 2 2 2 1 1 1 1 0 0 0 -0 -0 -0 -0 -0 -1 -1 -1 -2 -2 -2 -2 -2 -2 -3 -3 -3 -3 -3 -4 -4 -4 -4 -4 -4 -4 -4 -4 -4 -4
6 5 5 5 5 5 5 5 5 5 5 5 5 4 4 4 4 4 4 4 3 3 3 3 2 2 2 2 2 2 1 1 1 1 1 0 0 0 0 -0 -0 -0 -0 -1 -1 -1 -2 -2 -2 -2 -3 -3 -3 -3 -4 -4 -4 -4 -4 -4 -4 -4 -4 -4 -4 -4 -4 -4 -4
5 5 5 5 5 5 5 5 5 5 5 4 4 4 4 4 4 4 4 3 3 3 3 2 2 2 2 2 1 1 1 1 1 1 0 0 0 0 -0 -0 -0 -0 -1 -1 -1 -2 -2 -2 -2 -3 -3 -4 -4 -4 -4 -4 -4 -5 -4 -4 -4 -5 -5 -4 -5 -5 -5 -5 -5
5 5 5 5 5 5 5 5 5 4 4 4 4 4 4 4 4 4 3 3 3 3 2 2 2 2 1 1 1 1 1 1 1 1 0 0 0 0 -0 -0 -0 -1 -1 -1 -2 -2 -3 -3 -3 -4 -4 -4 -4 -5 -5 -5 -5 -5 -5 -5 -5 -5 -5 -5 -5 -5 -5 -5 -5
5 5 5 5 5 5 5 5 4 4 4 4 4 4 4 4 4 3 3 3 3 2 2 2 2 1 1 1 1 1 1 0 0 0 0 0 0 0 -0 -0 -0 -1 -1 -1 -2 -2 -3 -4 -4 -4 -5 -5 -5 -5 -5 -5 -5 -5 -5 -5 -5 -5 -5 -5 -5 -5 -5 -5 -5
5 5 5 5 5 5 5 4 4 4 4 4 4 4 4 4 3 3 3 2 2 2 2 2 1 1 1 1 1 1 1 0 0 0 -0 -0 -0 -0 -0 -0 -0 -1 -1 -1 -2 -2 -3 -4 -5 -5 -5 -5 -5 -5 -5 -5 -5 -5 -5 -5 -5 -5 -5 -5 -5 -5 -5 -5 -5
5 5 5 5 5 5 4 4 4 4 4 4 4 4 3 3 3 3 2 2 2 2 2 1 1 1 1 1 1 1 0 0 0 0 -0 -0 -0 -0 -0 -0 -1 -1 -1 -2 -2 -3 -3 -4 -5 -5 -5 -5 -5 -5 -5 -5 -5 -5 -5 -5 -5 -5 -5 -5 -5 -5 -5 -5 -5
5 5 5 5 4 4 4 4 4 4 4 4 4 3 3 3 3 2 2 2 2 1 1 1 1 1 1 1 0 0 0 0 0 0 -0 -0 -0 -0 -1 -1 -1 -1 -1 -2 -2 -3 -4 -4 -5 -5 -5 -5 -5 -5 -5 -5 -5 -5 -5 -5 -5 -5 -5 -5 -5 -5 -5 -6 -6
5 5 5 4 4 4 4 4 4 4 4 3 3 3 3 3 2 2 2 2 1 1 1 1 1 1 1 0 0 0 0 0 0 -0 -0 -0 -0 -1 -1 -1 -1 -1 -2 -2 -3 -3 -4 -4 -5 -5 -5 -5 -5 -5 -5 -5 -5 -5 -5 -5 -5 -5 -5 -5 -5 -6 -6 -6 -6
5 4 4 4 4 4 4 4 4 4 3 3 3 3 2 2 2 2 2 1 1 1 1 1 1 1 0 0 0 0 0 0 0 -0 -0 -0 -1 -1 -1 -1 -1 -1 -2 -2 -3 -3 -4 -5 -5 -5 -5 -5 -5 -5 -5 -5 -5 -5 -5 -5 -5 -5 -6 -6 -6 -6 -6 -6 -6
4 4 4 4 4 4 4 4 3 3 3 3 3 2 2 2 2 2 1 1 1 1 1 1 0 0 0 0 0 0 0 0 -0 -0 -0 -1 -1 -1 -1 -1 -1 -1 -2 -2 -3 -3 -4 -5 -5 -5 -5 -5 -5 -5 -5 -5 -5 -5 -5 -6 -6 -6 -6 -6 -6 -6 -6 -6 -6
4 4 4 4 4 4 4 3 3 3 3 3 2 2 2 2 2 1 1 1 1 1 1 0 0 0 0 0 0 -0 -0 -0 -0 -0 -0 -1 -1 -1 -1 -1 -1 -1 -2 -2 -3 -4 -4 -5 -5 -5 -5 -5 -5 -5 -5 -5 -5 -6 -6 -6 -6 -6 -6 -6 -6 -6 -6 -6 -6
4 4 4 4 4 4 3 3 3 3 2 2 2 2 2 1 1 1 1 1 1 0 0 0 0 0 0 -0 -0 -0 -0 -0 -0 -0 -1 -1 -1 -1 -1 -1 -1 -2 -2 -3 -3 -4 -4 -5 -5 -5 -5 -5 -5 -5 -6 -6 -6 -6 -6 -6 -6 -6 -6 -6 -6 -6 -6 -7 -7
4 4 4 4 4 3 3 3 3 2 2 2 2 2 1 1 1 1 1 1 0 0 0 0 0 -0 -0 -0 -0 -0 -0 -0 -0 -1 -1 -1 -1 -1 -2 -2 -2 -2 -2 -3 -4 -4 -5 -5 -6 -6 -6 -5 -6 -6 -6 -6 -6 -6 -6 -6 -6 -6 -6 -6 -6 -7 -7 -7 -7
4 4 4 4 3 3 3 3 2 2 2 2 2 1 1 1 1 1 1 0 0 0 0 0 -0 -0 -0 -0 -0 -1 -1 -1 -1 -1 -1 -1 -1 -2 -2 -2 -2 -2 -2 -3 -4 -4 -5 -5 -6 -6 -6 -6 -6 -6 -6 -6 -6 -6 -6 -6 -6 -6 -6 -7 -7 -7 -7 -7 -6
4 4 3 3 3 3 3 2 2 2 2 2 1 1 1 1 1 1 0 0 0 0 0 -0 -0 -0 -0 -0 -0 -1 -1 -1 -1 -1 -1 -1 -2 -2 -2 -2 -2 -2 -2 -3 -4 -5 -5 -6 -6 -6 -6 -6 -6 -6 -6 -6 -6 -6 -6 -6 -6 -7 -7 -7 -7 -7 -7 -6 -6
3 3 3 3 3 3 2 2 2 2 2 1 1 1 1 1 1 1 0 0 -0 -0 -0 -0 -0 -0 -0 -1 -1 -1 -1 -1 -1 -1 -1 -2 -2 -2 -2 -2 -2 -2 -3 -3 -4 -5 -5 -6 -6 -6 -6 -6 -6 -6 -6 -6 -6 -6 -6 -7 -7 -7 -7 -7 -7 -7 -7 -6 -6
3 3 3 3 3 2 2 2 2 1 1 1 1 1 1 1 1 0 0 -0 -0 -0 -0 -0 -0 -1 -1 -1 -1 -1 -1 -1 -1 -1 -1 -2 -2 -2 -3 -3 -3 -3 -3 -4 -4 -5 -5 -6 -6 -6 -6 -6 -6 -6 -6 -6 -7 -7 -7 -7 -7 -7 -7 -7 -7 -7 -7 -6 -6
3 3 3 2 2 2 2 2 1 1 1 1 1 1 1 0 0 0 -0 -0 -0 -1 -1 -1 -1 -1 -1 -1 -1 -1 -1 -1 -1 -1 -2 -2 -2 -3 -3 -3 -3 -3 -3 -4 -5 -5 -5 -6 -6 -6 -6 -6 -6 -6 -7 -7 -7 -7 -7 -7 -7 -7 -7 -7 -7 -7 -6 -6 -5
3 3 2 2 2 2 1 1 1 1 1 1 1 1 0 0 0 -0 -0 -0 -1 -1 -1 -1 -1 -1 -1 -1 -1 -1 -1 -1 -1 -1 -2 -2 -2 -3 -3 -3 -3 -4 -4 -4 -5 -5 -6 -6 -6 -6 -6 -6 -7 -7 -7 -7 -7 -7 -7 -7 -7 -7 -7 -7 -7 -7 -6 -6 -5
3 2 2 2 2 1 1 1 1 1 1 1 1 0 0 0 -0 -0 -0 -1 -1 -1 -1 -1 -1 -1 -1 -1 -1 -1 -1 -1 -1 -1 -2 -2 -2 -3 -3 -3 -4 -4 -4 -4 -5 -5 -6 -6 -7 -7 -7 -7 -7 -7 -7 -7 -7 -7 -7 -7 -7 -7 -7 -7 -7 -6 -6 -6 -6
Height
1557 1556 1556 1556 1556 1555 1555 1554 1554 1553 1553 1552 1552 1551 1551 1550 1549 1549 1548 1547 1547 1546 1545 1545 1544 1543 1543 1542 1542 1541 1540 1540 1539 1538 1537 1537 1536 1535 1534 1533 1532 1532 1531 1530 1529 1528 1527 1526 1524 1523 1522 1520 1519 1518 1517 1516 1515 1513 1512 1511 1510 1508 1507 1506 1505 1504 1503 1502 1501
1555 1555 1555 1555 1555 1554 1554 1553 1553 1552 1552 1551 1551 1550 1549 1549 1548 1547 1547 1546 1546 1545 1544 1543 1543 1542 1542 1541 1541 1540 1539 1538 1538 1537 1536 1535 1534 1533 1532 1532 1531 1530 1529 1528 1527 1526 1524 1523 1522 1520 1519 1517 1516 1515 1514 1513 1512 1511 1509 1508 1507 1506 1504 1503 1502 1501 1500 1499 1498
1554 1554 1554 1554 1553 1553 1552 1552 1552 1551 1550 1550 1549 1549 1548 1547 1547 1546 1546 1545 1544 1544 1543 1542 1542 1541 1541 1540 1539 1538 1538 1537 1536 1535 1534 1533 1532 1532 1531 1530 1529 1528 1527 1526 1524 1523 1522 1521 1519 1517 1516 1514 1513 1512 1511 1510 1509 1507 1506 1505 1503 1502 1501 1500 1499 1498 1497 1496 1495
1553 1553 1553 1553 1552 1552 1552 1551 1550 1550 1549 1549 1548 1548 1547 1546 1546 1545 1545 1544 1543 1542 1542 1541 1541 1540 1539 1538 1538 1537 1536 1535 1534 1533 1532 1532 1531 1530 1529 1528 1527 1526 1524 1523 1522 1521 1519 1518 1516 1514 1513 1511 1510 1509 1507 1507 1506 1504 1503 1502 1501 1500 1498 1497 1496 1495 1494 1493 1492
1552 1552 1552 1552 1551 1551 1550 1550 1549 1549 1548 1548 1547 1547 1546 1545 1545 1544 1543 1543 1542 1542 1541 1540 1539 1539 1538 1537 1536 1536 1535 1534 1532 1532 1530 1529 1528 1527 1527 1526 1524 1523 1522 1521 1519 1518 1517 1515 1513 1512 1510 1509 1507 1506 1505 1504 1502 1501 1500 1499 1498 1497 1496 1494 1493 1492 1492 1491 1490
1551 1551 1551 1551 1550 1550 1549 1549 1548 1548 1547 1547 1547 1546 1545 1544 1544 1543 1542 1542 1541 1541 1540 1539 1538 1537 1537 1536 1535 1534 1533 1532 1531 1530 1528 1527 1526 1525 1524 1523 1522 1521 1519 1518 1517 1515 1513 1512 1510 1508 1507 1506 1504 1503 1502 1501 1500 1498 1497 1496 1495 1494 1493 1492 1491 1490 1489 1488 1487
1550 1550 1550 1549 1549 1548 1548 1548 1547 1547 1547 1546 1545 1545 1544 1543 1543 1542 1542 1541 1540 1539 1538 1537 1537 1536 1535 1534 1533 1532 1531 1530 1529 1528 1527 1525 1524 1523 1522 1520 1519 1518 1516 1515 1513 1512 1510 1509 1507 1505 1504 1502 1501 1500 1499 1498 1497 1495 1494 1492 1492 1491 1491 1489 1488 1487 1486 1485 1484
1549 1549 1548 1548 1548 1547 1547 1547 1546 1546 1545 1545 1544 1544 1543 1542 1542 1541 1540 1540 1539 1538 1537 1536 1535 1534 1533 1532 1531 1530 1529 1527 1527 1525 1524 1523 1522 1520 1519 1517 1516 1515 1513 1512 1510 1509 1507 1506 1504 1502 1501 1500 1498 1497 1496 1495 1494 1493 1491 1490 1489 1488 1487 1487 1486 1485 1484 1482 1481
1548 1548 1547 1547 1547 1547 1546 1546 1545 1545 1544 1544 1543 1542 1542 1541 1540 1540 1539 1538 1537 1537 1535 1534 1533 1532 1531 1530 1529 1528 1527 1525 1524 1522 1521 1520 1519 1517 1516 1514 1513 1512 1510 1509 1507 1506 1504 1502 1501 1500 1498 1497 1496 1494 1493 1492 1491 1490 1489 1487 1486 1485 1485 1484 1483 1482 1481 1480 1479
1547 1547 1546 1546 1546 1545 1545 1545 1544 1544 1543 1543 1542 1541 1541 1540 1539 1538 1537 1537 1536 1535 1534 1532 1532 1530 1529 1528 1527 1526 1524 1523 1521 1520 1518 1517 1516 1514 1513 1512 1510 1508 1507 1506 1504 1503 1501 1500 1498 1497 1496 1495 1493 1492 1491 1490 1489 1487 1486 1485 1484 1482 1482 1481 1481 1480 1478 1477 1476
1546 1546 1545 1545 1545 1544 1544 1543 1543 1542 1542 1541 1541 1540 1539 1538 1537 1537 1536 1535 1534 1533 1532 1531 1530 1528 1527 1526 1525 1523 1522 1520 1519 1517 1516 1515 1513 1512 1510 1509 1507 1506 1504 1503 1502 1500 1498 1497 1496 1494 1493 1492 1491 1490 1488 1487 1486 1485 1483 1482 1481 1480 1479 1478 1477 1477 1476 1475 1473
1545 1544 1544 1544 1543 1543 1543 1542 1542 1541 1541 1540 1539 1538 1537 1537 1536 1535 1534 1533 1532 1531 1530 1529 1527 1526 1525 1523 1522 1521 1519 1518 1516 1515 1513 1512 1511 1509 1508 1506 1505 1503 1502 1500 1499 1497 1496 1494 1493 1492 1490 1489 1488 1487 1486 1485 1483 1482 1481 1479 1479 1478 1477 1475 1475 1474 1473 1472 1471
1544 1543 1543 1542 1542 1542 1541 1541 1540 1540 1539 1538 1537 1537 1536 1535 1534 1533 1532 1531 1530 1529 1528 1527 1526 1524 1523 1521 1520 1518 1517 1516 1514 1512 1511 1510 1508 1507 1505 1504 1502 1501 1499 1498 1497 1495 1494 1492 1491 1489 1488 1487 1486 1485 1484 1482 1481 1480 1478 1477 1476 1475 1474 1473 1472 1472 1471 1470 1468
1542 1542 1542 1541 1541 1540 1540 1539 1539 1538 1537 1537 1536 1535 1534 1533 1532 1532 1531 1529 1528 1527 1526 1525 1523 1522 1521 1519 1517 1516 1515 1513 1512 1510 1509 1507 1506 1504 1503 1501 1500 1498 1497 1496 1494 1493 1492 1490 1489 1487 1486 1484 1483 1482 1481 1480 1479 1477 1476 1475 1474 1473 1472 1471 1470 1469 1468 1467 1466
1541 1541 1540 1540 1539 1539 1538 1538 1537 1537 1536 1535 1534 1534 1533 1532 1531 1530 1529 1527 1526 1525 1524 1523 1521 1520 1519 1517 1516 1514 1512 1511 1509 1508 1507 1505 1503 1502 1501 1499 1497 1496 1495 1493 1492 1491 1490 1488 1487 1485 1484 1482 1481 1480 1479 1478 1477 1476 1474 1473 1472 1471 1469 1468 1467 1467 1466 1465 1463
1540 1539 1539 1538 1538 1537 1537 1536 1536 1535 1534 1534 1533 1532 1531 1530 1529 1528 1527 1526 1524 1523 1522 1521 1519 1518 1516 1515 1513 1512 1510 1509 1507 1506 1504 1502 1501 1500 1498 1497 1495 1494 1492 1491 1490 1489 1487 1487 1485 1483 1482 1480 1479 1478 1477 1476 1474 1473 1472 1471 1470 1468 1467 1466 1465 1464 1463 1462 1461
1538 1538 1537 1537 1536 1536 1535 1535 1534 1533 1533 1532 1531 1530 1529 1528 1527 1526 1525 1524 1522 1521 1520 1518 1517 1515 1514 1512 1511 1510 1508 1507 1505 1503 1502 1500 1499 1497 1496 1494 1493 1492 1490 1489 1488 1486 1485 1484 1483 1482 1480 1478 1477 1476 1474 1473 1472 1471 1470 1469 1467 1466 1465 1464 1463 1462 1461 1460 1459
1537 1536 1536 1535 1535 1534 1534 1533 1532 1532 1531 1530 1529 1529 1527 1527 1525 1524 1523 1522 1520 1519 1517 1516 1515 1513 1512 1510 1509 1507 1506 1504 1503 1501 1500 1498 1497 1495 1494 1492 1491 1490 1488 1487 1486 1484 1483 1482 1481 1479 1478 1477 1475 1474 1472 1471 1470 1468 1467 1466 1465 1464 1463 1462 1461 1460 1459 1458 1457
1535 1535 1534 1534 1533 1533 1532 1532 1531 1530 1529 1528 1528 1527 1526 1525 1523 1522 1521 1520 1518 1517 1515 1514 1512 1511 1510 1508 1507 1505 1504 1502 1501 1499 1497 1496 1495 1493 1492 1490 1489 1488 1487 1485 1484 1482 1481 1480 1478 1477 1475 1474 1472 1471 1470 1469 1467 1466 1465 1463 1462 1461 1460 1459 1458 1457 1457 1455 1454
1534 1533 1533 1532 1532 1531 1531 1530 1529 1528 1527 1527 1526 1525 1524 1522 1521 1520 1519 1517 1516 1515 1513 1512 1510 1508 1507 1506 1504 1503 1502 1500 1498 1497 1495 1494 1493 1491 1490 1488 1487 1486 1484 1483 1482 1480 1479 1477 1476 1474 1473 1471 1470 1468 1467 1466 1464 1463 1462 1461 1460 1458 1457 1457 1456 1455 1454 1453 1452
1532 1532 1531 1531 1530 1530 1529 1528 1527 1527 1526 1525 1524 1522 1522 1520 1519 1518 1517 1515 1514 1512 1511 1509 1508 1506 1505 1503 1502 1501 1499 1498 1497 1495 1493 1492 1491 1489 1488 1487 1485 1483 1482 1481 1479 1478 1476 1475 1473 1472 1470 1469 1467 1466 1464 1463 1462 1460 1459 1458 1457 1456 1455 1454 1453 1452 1451 1450 1450
1531 1530 1530 1529 1529 1528 1527 1527 1526 1525 1524 1522 1522 1520 1519 1518 1517 1516 1514 1513 1512 1510 1509 1507 1506 1504 1502 1501 1500 1498 1497 1496 1494 1493 1492 1490 1489 1487 1486 1484 1483 1481 1480 1478 1477 1475 1474 1472 1471 1469 1467 1466 1464 1463 1462 1461 1459 1458 1457 1455 1454 1453 1452 1451 1451 1450 1449 1448 1447
1529 1529 1528 1527 1527 1526 1525 1524 1523 1522 1522 1521 1519 1518 1517 1516 1515 1513 1512 1511 1509 1508 1507 1505 1503 1502 1500 1499 1497 1496 1494 1493 1492 1491 1489 1488 1487 1485 1484 1482 1481 1479 1477 1476 1475 1473 1471 1469 1467 1466 1465 1463 1462 1461 1460 1459 1457 1456 1454 1453 1452 1451 1450 1449 1448 1447 1447 1446 1445
1528 1527 1527 1526 1525 1524 1523 1522 1522 1521 1519 1518 1517 1516 1515 1514 1512 1511 1510 1508 1507 1506 1504 1503 1501 1500 1498 1497 1496 1494 1492 1491 1489 1488 1487 1486 1484 1483 1482 1480 1478 1477 1475 1474 1472 1471 1469 1467 1465 1464 1463 1462 1461 1459 1458 1457 1456 1454 1452 1451 1450 1448 1447 1447 1446 1445 1444 1443 1442
1526 1526 1525 1524 1523 1522 1522 1521 1519 1518 1517 1516 1515 1514 1512 1511 1510 1509 1507 1506 1505 1503 1502 1501 1499 1498 1496 1495 1493 1492 1491 1489 1487 1486 1484 1483 1482 1481 1479 1477 1476 1475 1473 1472 1470 1469 1467 1466 1464 1463 1462 1460 1459 1458 1456 1455 1454 1452 1451 1449 1448 1447 1445 1444 1443 1442 1442 1441 1440
1524 1524 1523 1522 1522 1521 1520 1518 1517 1516 1515 1514 1513 1512 1510 1509 1508 1506 1505 1504 1502 1501 1500 1498 1497 1496 1494 1493 1492 1490 1489 1487 1486 1484 1482 1481 1479 1478 1477 1475 1474 1472 1471 1469 1468 1467 1465 1464 1463 1462 1461 1459 1457 1456 1454 1452 1451 1450 1449 1447 1446 1445 1443 1442 1440 1440 1439 1438 1437
1523 1522 1521 1520 1520 1519 1517 1517 1515 1514 1513 1512 1510 1509 1508 1507 1505 1504 1503 1502 1500 1499 1498 1497 1495 1494 1492 1491 1489 1488 1487 1485 1484 1482 1480 1479 1477 1476 1474 1473 1471 1470 1468 1467 1466 1464 1463 1462 1461 1460 1459 1457 1456 1454 1452 1450 1449 1447 1446 1445 1444 1442 1441 1440 1438 1437 1436 1435 1434
1521 1520 1519 1518 1517 1517 1516 1514 1513 1512 1511 1509 1508 1507 1506 1504 1503 1502 1501 1499 1498 1497 1496 1494 1493 1492 1490 1489 1487 1486 1485 1483 1482 1480 1478 1477 1475 1473 1472 1470 1469 1467 1466 1465 1463 1462 1461 1460 1459 1458 1457 1456 1454 1452 1450 1448 1447 1445 1444 1442 1441 1440 1439 1438 1436 1435 1434 1432 1432
1519 1518 1517 1516 1516 1514 1513 1512 1511 1510 1508 1507 1506 1505 1503 1502 1501 1500 1499 1497 1496 1495 1493 1492 1491 1489 1488 1487 1485 1484 1482 1481 1480 1478 1476 1474 1473 1471 1470 1468 1467 1465 1464 1463 1461 1460 1459 1457 1456 1456 1455 1454 1452 1450 1448 1447 1445 1443 1441 1440 1439 1438 1437 1435 1434 1433 1432 1431 1429
1517 1516 1515 1514 1513 1512 1511 1510 1509 1507 1506 1505 1504 1502 1501 1500 1499 1498 1497 1495 1494 1492 1491 1490 1489 1487 1486 1485 1483 1482 1480 1479 1477 1476 1474 1472 1471 1469 1468 1466 1465 1463 1462 1461 1459 1457 1456 1455 1454 1453 1452 1451 1450 1448 1446 1444 1442 1441 1439 1437 1437 1436 1434 1433 1432 1431 1430 1428 1427
1515 1514 1513 1512 1511 1510 1509 1507 1506 1505 1504 1503 1502 1501 1499 1498 1497 1496 1495 1493 1492 1491 1489 1488 1487 1485 1484 1482 1481 1480 1478 1477 1475 1474 1472 1470 1468 1467 1465 1464 1462 1461 1460 1458 1457 1455 1454 1453 1452 1451 1450 1449 1447 1446 1444 1442 1440 1439 1437 1436 1434 1433 1432 1431 1430 1429 1428 1427 1425
1513 1512 1511 1510 1509 1508 1507 1505 1504 1503 1502 1501 1500 1498 1497 1496 1495 1494 1493 1491 1490 1488 1487 1486 1484 1483 1482 1480 1479 1477 1476 1475 1473 1472 1470 1468 1467 1465 1463 1462 1460 1459 1457 1456 1455 1453 1452 1451 1449 1448 1447 1446 1445 1443 1441 1440 1438 1436 1435 1433 1432 1431 1430 1429 1428 1427 1426 1424 1423
1511 1510 1509 1508 1507 1506 1504 1503 1502 1501 1500 1499 1498 1497 1495 1494 1493 1492 1491 1489 1488 1486 1485 1483 1482 1481 1479 1478 1477 1475 1474 1472 1471 1470 1468 1466 1465 1463 1461 1459 1458 1457 1455 1454 1452 1451 1450 1448 1447 1446 1445 1444 1442 1440 1438 1437 1435 1434 1432 1431 1430 1429 1428 1427 1426 1425 1423 1422 1421
1509 1508 1507 1506 1505 1503 1502 1501 1500 1499 1498 1497 1496 1495 1493 1492 1491 1490 1488 1487 1486 1484 1483 1482 1480 1479 1477 1476 1475 1473 1472 1470 1469 1467 1466 1464 1462 1461 1459 1457 1456 1455 1453 1452 1450 1449 1447 1446 1444 1443 1442 1441 1439 1437 1436 1434 1433 1432 1430 1429 1427 1427 1426 1425 1423 1422 1421 1420 1418
1507 1506 1505 1503 1502 1501 1500 1499 1498 1497 1496 1495 1494 1492 1492 1490 1489 1488 1486 1485 1483 1482 1481 1480 1478 1477 1476 1474 1473 1471 1470 1468 1467 1465 1464 1462 1460 1458 1457 1455 1453 1452 1451 1450 1448 1446 1445 1443 1442 1441 1440 1439 1437 1435 1433 1432 1430 1429 1428 1426 1425 1424 1423 1422 1421 1420 1418 1417 1416
1505 1504 1502 1501 1500 1499 1498 1497 1496 1495 1494 1493 1492 1490 1489 1488 1487 1486 1484 1483 1482 1480 1479 1477 1476 1475 1473 1472 1471 1469 1468 1466 1464 1463 1461 1460 1458 1456 1454 1452 1451 1450 1449 1447 1446 1444 1442 1441 1440 1439 1437 1436 1434 1432 1431 1430 1428 1427 1425 1424 1422 1421 1420 1419 1418 1417 1416 1414 1413
1503 1502 1500 1499 1498 1497 1496 1495 1494 1493 1492 1491 1489 1488 1487 1486 1485 1483 1482 1481 1479 1478 1477 1475 1474 1473 1471 1470 1468 1467 1466 1464 1463 1461 1459 1457 1456 1454 1452 1450 1448 1447 1446 1445 1443 1442 1440 1439 1437 1436 1435 1434 1432 1431 1429 1427 1426 1424 1423 1421 1420 1419 1418 1417 1415 1414 1413 1412 1411
1501 1499 1498 1497 1496 1495 1494 1493 1492 1491 1490 1488 1487 1486 1485 1484 1482 1482 1480 1479 1477 1476 1474 1473 1472 1471 1469 1468 1466 1465 1464 1462 1461 1459 1457 1455 1454 1452 1450 1448 1446 1445 1444 1442 1441 1439 1438 1437 1435 1434 1433 1432 1431 1429 1427 1425 1423 1422 1420 1419 1417 1416 1415 1414 1413 1412 1411 1410 1409
1499 1497 1496 1495 1494 1493 1492 1491 1490 1489 1487 1487 1485 1484 1483 1482 1481 1479 1478 1477 1475 1474 1472 1471 1469 1468 1467 1466 1464 1462 1461 1460 1459 1457 1456 1453 1452 1450 1448 1446 1444 1442 1442 1440 1439 1437 1436 1435 1433 1433 1432 1431 1429 1427 1425 1423 1421 1420 1418 1417 1415 1414 1413 1412 1411 1410 1409 1408 1407
1497 1495 1494 1493 1492 1491 1490 1489 1488 1487 1486 1485 1483 1482 1481 1480 1478 1477 1476 1475 1473 1472 1470 1469 1467 1466 1465 1463 1462 1460 1459 1458 1457 1456 1454 1452 1450 1448 1447 1444 1442 1441 1439 1438 1437 1435 1434 1432 1432 1431 1430 1429 1427 1425 1423 1422 1419 1417 1416 1415 1413 1412 1410 1409 1409 1408 1407 1406 1405
1495 1493 1492 1491 1490 1489 1488 1487 1486 1485 1484 1482 1481 1480 1479 1478 1477 1475 1474 1473 1471 1470 1468 1467 1465 1464 1463 1462 1460 1458 1457 1455 1454 1453 1452 1450 1448 1446 1444 1442 1440 1438 1437 1436 1435 1433 1432 1431 1430 1430 1428 1427 1425 1424 1422 1420 1418 1416 1414 1413 1412 1410 1408 1407 1406 1405 1404 1403 1402
Wind_Speed
10 10 10 11 12 13 14 15 15 15 15 14 14 14 14 15 15 16 16 17 17 17 17 16 16 16 16 15 15 15 15 16 17 18 19 19 20 21 21 21 22 22 23 24 25 26 27 28 30 32 33 34 35 36 37 37 37 37 36 35 35 34 33 32 32 31 31 31 30
10 10 11 12 13 14 15 15 15 15 14 14 14 14 14 15 15 16 16 16 16 16 16 16 16 16 15 15 16 16 17 18 19 20 20 21 21 21 22 22 23 23 24 26 27 28 30 31 33 34 35 36 37 37 37 37 37 36 35 34 34 33 32 31 31 31 31 31 31
11 11 12 13 14 15 15 15 14 14 14 14 14 14 14 15 15 15 15 16 16 16 16 16 16 16 16 16 17 18 19 19 20 21 21 22 22 22 23 24 25 26 27 28 30 31 33 34 35 36 36 37 37 37 37 37 36 35 33 33 32 32 31 31 31 31 31 31 31
11 12 13 14 15 15 14 14 13 13 13 13 13 14 14 14 15 15 15 15 15 15 16 16 16 17 17 18 18 19 20 21 21 22 22 23 23 24 25 26 27 29 30 32 33 34 35 36 36 36 37 37 37 37 36 36 35 33 32 32 31 31 30 31 31 31 31 31 31
12 13 14 15 14 14 14 13 13 12 13 13 13 13 14 14 15 15 15 15 15 15 16 16 17 17 18 19 20 20 21 22 22 23 24 25 26 27 28 29 31 32 33 34 35 36 36 36 36 36 36 36 36 36 35 34 33 32 32 31 31 30 30 30 31 31 31 32 32
14 14 15 15 14 13 13 13 12 12 13 13 13 13 14 14 14 15 15 15 15 15 16 17 18 18 19 20 21 22 22 23 24 25 26 27 29 30 31 32 33 35 35 36 36 36 36 36 36 36 36 36 35 35 34 33 32 31 31 31 30 30 30 30 31 31 31 32 32
15 15 15 14 14 13 13 12 13 13 13 13 13 13 14 14 14 15 15 15 16 16 17 18 19 20 21 21 22 23 24 25 26 27 29 30 31 33 34 35 36 36 36 37 37 36 36 35 35 35 35 35 34 34 33 32 31 30 30 30 30 30 30 30 31 31 31 32 32
16 15 15 14 13 13 12 13 13 13 13 13 13 13 14 14 14 15 15 16 16 17 18 19 20 21 22 23 24 25 26 27 29 30 31 33 34 35 36 36 37 37 37 36 36 35 35 35 34 34 34 34 33 33 32 31 30 30 30 30 30 30 30 30 30 31 31 31 32
16 15 14 13 13 12 13 13 13 13 13 13 14 14 14 15 15 16 16 17 18 19 20 20 21 22 24 25 26 27 29 30 31 33 34 35 35 36 37 37 37 37 36 36 35 35 34 34 34 33 33 32 32 31 31 30 30 29 29 30 30 30 30 30 30 30 30 31 31
15 14 13 13 12 12 13 13 13 13 13 13 14 14 14 15 16 17 17 18 19 20 21 22 23 24 25 27 28 30 31 32 33 34 35 36 36 36 36 36 36 36 36 35 35 34 34 34 33 33 32 32 31 31 30 30 29 29 29 30 30 30 30 30 30 30 30 30 31
15 13 13 12 12 13 13 13 13 13 13 13 14 14 15 16 17 18 18 19 20 21 22 23 25 26 28 29 30 32 33 34 35 35 36 36 36 36 36 36 35 35 35 35 34 34 33 33 33 32 32 31 30 30 30 29 29 29 29 30 30 30 30 30 30 29 30 30 31
14 13 12 12 13 13 13 13 13 13 14 14 15 15 16 17 18 19 19 20 21 22 24 25 27 28 30 31 32 33 34 35 35 35 36 36 36 35 35 35 35 35 34 34 33 33 32 32 32 31 31 31 30 29 29 29 29 29 29 30 30 30 30 30 30 29 29 30 30
13 12 12 12 13 13 13 13 13 14 14 15 15 16 17 18 19 20 21 22 23 24 26 27 29 30 31 33 33 34 34 35 35 35 35 35 35 35 35 35 34 34 34 33 33 32 31 31 31 30 30 30 29 29 28 28 28 29 29 30 30 30 30 30 30 29 29 29 30
12 12 12 13 13 13 13 13 14 14 15 15 16 17 18 19 20 21 22 24 25 27 28 30 31 32 32 33 33 34 34 34 34 34 34 34 34 34 34 34 34 33 33 32 31 31 30 30 29 29 29 29 29 29 28 28 28 28 29 29 30 30 30 30 29 29 29 30 30
12 12 12 13 13 13 13 14 14 15 15 16 17 18 19 20 21 23 24 26 27 29 30 31 32 32 33 33 33 33 33 33 33 33 34 34 34 33 33 33 33 32 31 31 30 30 29 28 28 28 28 28 28 28 28 28 28 28 29 29 29 30 30 29 29 29 29 30 30
12 12 12 12 13 13 14 14 15 16 16 17 18 19 20 22 23 25 26 28 29 30 31 32 32 32 32 32 32 32 32 32 33 33 33 33 33 33 32 32 31 31 30 30 29 29 28 27 27 27 28 28 28 29 29 28 28 28 28 28 29 29 29 29 29 29 29 30 31
12 12 12 12 13 14 14 15 16 17 17 18 19 21 22 23 25 26 28 29 30 31 32 32 32 32 32 31 31 31 31 32 32 32 32 32 32 32 31 31 30 30 29 29 29 28 28 27 27 27 28 28 28 29 29 29 29 29 28 28 28 29 29 29 29 30 30 31 31
11 12 12 13 13 14 15 16 17 17 18 20 21 22 24 25 27 28 29 30 31 31 31 31 31 31 30 30 31 31 31 31 31 31 31 31 31 31 30 30 29 29 29 28 28 28 28 28 28 28 28 28 29 29 29 29 29 29 29 29 29 29 29 30 30 31 31 32 32
12 12 13 13 14 15 16 17 18 19 20 21 22 24 25 27 28 29 30 30 30 31 31 30 30 30 30 30 30 30 30 30 31 31 30 30 30 30 29 29 29 29 29 28 28 29 29 29 29 29 29 29 30 29 29 29 29 29 29 29 30 30 31 31 31 32 32 32 32
12 13 13 14 15 16 17 18 19 20 21 23 24 25 27 28 29 30 30 30 30 30 30 29 29 29 30 30 30 30 30 30 30 30 30 30 29 29 29 29 29 29 29 29 29 29 29 30 30 30 30 30 30 30 30 30 30 30 31 31 32 32 32 32 33 33 33 33 33
13 13 14 15 16 17 18 19 20 21 23 24 25 27 28 29 29 29 29 30 29 29 29 29 29 29 29 30 30 30 30 30 30 30 30 30 29 29 29 29 30 30 30 30 30 30 30 30 31 31 31 31 31 31 31 31 32 32 32 33 33 33 33 33 33 33 33 33 33
13 14 15 16 17 18 19 20 21 23 24 25 26 27 28 29 29 29 29 29 29 28 28 28 28 29 29 29 30 30 30 30 30 29 29 29 30 30 30 30 30 31 31 31 31 31 31 32 32 32 32 32 32 32 32 32 33 33 34 34 35 34 34 34 34 34 34 33 34
14 15 16 17 18 19 20 21 23 24 25 26 27 28 28 29 29 29 29 28 28 28 28 28 28 29 29 29 30 30 30 30 30 30 30 30 30 30 30 31 31 31 32 32 32 32 32 33 33 33 32 32 32 32 32 33 33 34 35 35 35 35 35 35 34 34 34 34 34
15 16 17 18 19 20 21 23 24 25 26 27 27 28 28 28 29 28 28 28 28 28 28 28 28 29 29 29 29 30 30 30 30 30 30 30 30 31 31 31 32 32 32 32 32 32 33 33 33 33 32 32 32 32 33 33 34 34 35 35 36 36 36 35 35 34 34 34 34
16 17 18 19 20 21 22 24 25 26 26 27 27 28 28 28 28 28 28 28 27 27 28 28 28 29 29 29 29 29 29 30 30 31 31 31 31 31 32 32 32 33 33 33 33 33 33 32 31 31 31 31 31 32 32 33 33 34 34 35 36 36 36 36 36 35 34 34 33
17 18 19 20 21 22 23 24 25 26 27 27 28 28 28 28 28 28 27 27 27 27 28 28 28 28 29 29 29 29 29 29 30 30 31 32 32 32 32 33 33 33 33 33 33 33 33 31 30 29 29 30 31 31 32 33 33 34 34 35 35 36 36 36 36 35 35 34 33
18 19 20 21 22 23 24 25 26 26 27 27 27 27 27 27 27 27 27 27 27 28 28 28 28 28 29 29 29 29 29 29 30 30 31 32 32 33 33 33 34 34 34 34 34 34 33 31 30 29 28 29 30 31 32 33 34 34 35 35 35 35 35 35 35 35 35 35 34
19 20 21 22 23 24 25 25 26 26 27 27 27 27 27 27 27 27 27 27 27 28 28 28 28 28 29 29 29 29 29 29 30 30 31 32 32 33 34 34 34 34 34 34 34 33 32 31 30 29 28 28 29 31 32 33 34 35 35 35 35 35 34 34 34 35 35 34 34
20 21 22 23 24 25 25 26 26 26 26 26 27 27 27 26 26 27 27 27 27 28 28 28 28 28 28 28 29 29 29 29 30 31 31 32 33 33 34 34 34 34 34 34 34 33 32 31 30 29 28 28 29 31 32 33 34 34 35 35 34 34 34 34 34 34 34 34 34
21 22 23 24 24 25 25 25 25 26 26 26 26 26 26 26 26 27 27 27 27 27 28 28 28 28 28 28 29 29 29 29 30 31 31 32 33 34 34 34 34 34 34 34 34 33 32 31 30 29 29 29 29 30 32 33 33 34 34 34 34 33 33 33 33 33 33 33 34
22 23 24 24 25 25 25 25 25 25 25 25 25 26 26 26 26 27 27 27 27 27 28 28 28 28 28 28 28 29 29 30 30 31 32 33 34 34 34 35 35 35 34 34 34 33 32 31 30 30 29 29 30 30 31 32 33 34 34 34 33 32 32 32 32 32 32 33 34
22 23 24 24 25 25 25 25 25 25 25 25 25 26 26 26 26 26 26 27 27 27 28 28 28 28 29 29 29 29 29 30 30 31 32 33 34 34 35 35 35 35 34 34 33 33 32 31 31 30 30 29 30 31 31 32 32 33 33 32 32 31 31 31 32 32 33 33 34
23 23 24 24 24 25 25 24 24 24 25 25 25 26 26 26 26 26 26 26 27 27 28 28 28 28 29 29 29 30 30 30 31 31 32 33 34 34 35 35 35 35 34 34 34 33 32 32 31 30 30 30 30 31 31 31 31 31 31 31 31 31 31 32 32 33 34 34 35
23 24 24 24 24 24 24 24 24 24 25 25 25 26 26 26 26 26 26 26 27 27 28 28 28 28 29 29 29 30 30 31 31 32 32 33 34 35 35 35 35 35 34 34 34 33 33 32 31 30 30 30 30 30 30 30 30 30 31 31 32 32 32 33 33 34 34 35 35
23 24 24 24 24 24 24 24 24 24 25 25 25 26 26 26 26 26 26 27 27 27 28 28 28 28 28 29 29 29 30 31 32 32 33 34 34 35 35 35 35 35 34 34 34 33 33 32 31 30 29 29 29 29 29 30 30 30 31 32 33 33 34 34 34 34 34 34 33
23 23 24 24 24 24 24 24 24 25 25 25 26 26 26 26 26 26 26 27 27 28 28 28 28 29 29 29 29 30 30 31 32 33 33 34 34 35 35 35 35 35 35 34 34 33 33 32 31 29 29 28 28 29 29 29 30 31 32 33 34 34 34 34 34 33 33 31 30
23 23 23 23 23 23 23 24 24 25 25 25 26 26 26 26 26 26 26 27 27 28 28 29 29 29 29 29 30 30 30 31 32 33 33 34 34 35 35 36 36 36 35 35 34 33 32 31 30 28 27 27 27 28 29 30 31 32 33 33 34 34 34 34 33 32 31 29 28
23 23 23 23 23 23 23 24 24 25 25 25 26 26 26 26 26 26 26 27 27 28 29 29 29 29 29 30 30 30 31 31 31 32 33 34 34 34 35 36 36 36 35 34 34 32 31 30 28 27 26 26 27 28 29 30 32 33 33 34 34 34 33 33 32 31 30 28 26
22 22 22 23 23 23 23 24 24 25 25 26 26 26 26 26 26 26 26 26 27 28 28 29 29 29 29 30 30 31 31 31 31 32 33 33 34 34 35 35 36 36 35 34 33 32 31 29 27 26 25 25 26 28 29 31 32 33 33 34 34 34 33 32 31 30 29 27 26
22 22 22 22 23 23 24 24 25 25 25 26 26 26 26 26 26 26 26 26 27 27 28 29 29 29 30 30 31 31 32 32 31 32 32 33 33 34 34 35 35 35 34 33 32 31 30 28 27 25 25 25 26 27 29 30 32 33 33 33 33 33 33 32 31 30 29 28 27
21 21 22 22 23 23 24 24 25 25 25 26 26 26 26 26 26 26 26 26 27 27 28 29 29 29 30 30 31 31 32 32 32 32 32 33 33 34 34 34 35 34 34 33 32 31 30 28 26 25 25 25 26 27 28 30 31 32 33 33 33 33 33 33 32 31 30 30 31
Wind_Direction
274 282 288 292 295 298 300 302 304 305 306 306 306 306 306 307 307 307 308 308 307 306 305 304 302 301 300 298 297 298 298 300 301 302 304 305 305 306 306 306 305 306 306 307 307 307 308 308 309 309 308 308 308 308 308 308 309 308 308 307 306 305 304 302 301 301 301 301 301
277 283 287 291 294 297 300 302 303 304 305 305 305 305 305 305 306 306 306 306 305 304 303 302 301 300 299 298 298 299 301 302 303 304 304 305 305 305 305 305 305 305 306 307 307 308 308 309 309 308 308 307 307 307 307 307 307 307 306 305 304 303 302 300 300 300 300 301 301
277 282 286 291 294 297 299 301 302 303 303 303 304 304 305 305 305 305 305 304 304 303 302 301 300 300 300 300 301 302 303 304 305 305 305 305 305 305 305 305 306 306 307 308 308 308 308 309 308 308 307 307 307 306 306 306 306 305 304 303 302 302 300 299 299 300 301 301 301
276 281 286 290 293 296 297 299 300 300 301 301 302 303 303 303 303 303 303 303 302 302 302 301 302 302 302 303 304 305 305 306 306 306 306 306 306 306 306 307 307 307 308 308 308 308 308 308 307 307 306 306 306 305 306 306 305 304 303 302 301 301 300 299 299 300 301 301 301
275 281 286 290 292 294 295 296 297 298 298 299 300 301 301 301 301 302 302 302 302 302 303 303 304 305 305 306 307 307 308 308 307 307 307 307 307 307 307 308 308 308 308 308 308 308 308 307 307 306 306 305 305 305 305 305 304 303 302 301 300 300 300 299 299 300 300 300 300
277 282 286 289 290 291 292 293 294 295 296 297 298 298 298 299 299 300 301 302 302 303 304 305 306 307 308 309 309 309 309 309 308 308 308 308 308 308 308 309 309 309 309 309 309 308 308 307 307 306 305 305 305 305 305 304 304 302 301 300 300 300 300 299 299 299 300 299 299
278 282 285 286 287 288 289 291 292 294 295 296 296 296 296 297 299 300 301 302 304 305 307 308 309 310 310 311 311 311 310 310 309 309 309 309 309 309 310 310 310 310 310 309 309 309 308 307 307 306 306 305 305 305 304 304 303 302 300 299 299 300 300 299 299 299 299 299 299
278 281 282 283 284 286 288 289 291 293 294 295 296 296 297 298 300 301 303 305 307 309 310 311 312 312 312 312 312 311 311 311 310 310 310 311 311 311 311 311 311 310 310 310 309 309 309 308 307 307 306 306 305 305 305 304 303 301 300 299 299 299 299 299 299 299 299 299 298
277 278 279 280 282 285 287 289 291 292 293 294 296 297 299 301 303 305 307 309 311 313 314 314 314 314 314 313 313 313 312 312 312 312 312 312 312 312 312 311 311 311 311 310 310 310 309 309 308 307 307 307 306 305 305 304 303 301 299 299 299 299 299 298 299 299 299 298 298
273 275 276 279 282 285 287 289 291 292 293 295 297 299 302 305 308 310 312 313 315 316 316 315 315 315 314 314 314 314 314 314 313 313 313 313 313 312 312 312 312 312 311 311 311 311 310 310 309 308 308 307 307 306 305 304 303 301 300 299 299 299 299 299 299 299 298 298 298
270 272 275 279 282 285 288 290 291 293 295 297 300 304 307 310 313 314 316 317 317 317 316 316 316 315 315 315 315 315 315 314 314 313 313 313 313 313 312 312 312 312 312 312 312 312 312 311 310 310 309 308 308 307 306 305 303 302 301 300 300 300 299 299 299 299 299 298 298
268 271 275 279 283 286 288 290 292 295 298 302 306 309 313 315 316 317 318 318 317 317 316 316 316 316 316 316 315 315 315 314 314 313 313 313 313 313 313 313 313 313 313 313 313 313 312 312 311 311 310 309 309 308 307 306 305 303 302 302 301 301 300 300 300 299 299 299 299
267 272 276 281 284 286 289 292 295 299 303 308 311 314 316 317 318 318 318 317 317 317 317 317 317 316 316 315 315 314 314 313 313 313 313 313 313 313 313 314 314 314 314 314 314 314 313 313 312 312 311 310 309 309 308 307 306 305 304 303 303 302 302 301 301 300 300 299 299
269 274 278 282 285 288 292 295 299 304 309 312 315 317 318 318 318 317 317 317 317 317 317 317 316 316 315 315 314 314 313 313 313 313 313 313 314 314 315 315 315 315 315 315 315 314 314 314 313 312 312 311 310 309 309 308 307 305 305 304 304 303 302 301 301 301 300 300 300
272 276 280 284 288 292 296 300 304 309 312 315 316 317 317 317 317 317 317 317 317 317 316 316 316 315 314 314 314 313 313 313 314 314 314 315 315 316 316 316 316 316 316 316 315 315 314 314 314 313 312 311 311 310 309 308 307 305 304 304 303 302 302 301 301 301 301 302 302
274 279 284 289 293 297 301 305 309 312 314 316 316 317 317 317 317 317 317 317 317 316 316 315 315 314 314 314 313 314 314 314 315 315 316 317 317 317 318 318 317 317 317 316 315 315 314 314 314 313 313 312 311 310 309 308 306 305 304 303 302 302 301 301 301 302 302 303 304
279 284 289 294 298 301 305 308 311 313 314 316 316 316 316 316 317 317 317 316 316 315 315 315 314 314 314 314 314 315 315 316 317 317 318 319 319 319 319 318 318 318 317 316 316 315 314 314 314 313 312 311 310 310 309 308 307 305 304 303 302 302 301 301 302 303 304 305 305
286 290 295 299 302 305 307 309 312 313 314 315 316 316 316 316 316 316 316 316 316 315 315 314 314 314 315 315 315 316 317 318 319 319 320 320 320 320 319 319 318 318 317 316 316 315 314 314 314 313 312 311 310 309 309 308 307 307 306 305 304 303 303 303 304 305 305 306 306
292 296 299 301 303 306 308 310 312 313 314 315 315 316 316 316 316 316 316 315 315 315 315 314 315 315 316 316 317 318 319 320 320 321 321 321 321 320 319 319 318 317 317 316 315 315 315 314 314 313 313 312 311 310 310 310 309 309 308 307 306 305 305 305 306 306 307 307 307
295 298 300 301 304 306 308 310 311 313 314 314 315 315 316 316 316 316 315 315 315 315 315 315 315 316 317 318 319 320 320 321 322 322 321 321 320 320 319 319 318 317 316 316 316 315 315 315 315 314 314 313 313 313 313 313 312 312 311 309 308 307 307 307 307 307 308 308 308
295 297 299 301 303 306 308 310 311 313 314 315 315 315 316 316 316 315 315 315 315 315 316 316 317 318 319 319 320 321 321 322 322 322 321 321 320 319 319 318 318 317 316 316 316 316 316 316 316 316 315 315 315 316 316 316 315 313 312 310 309 308 308 308 308 308 308 308 307
294 295 298 300 303 306 308 310 312 313 314 315 315 315 316 316 315 315 315 315 316 316 317 317 318 319 320 321 321 322 322 322 322 321 321 320 319 319 318 318 318 317 317 317 317 318 318 317 317 318 318 318 318 318 317 316 314 312 311 310 309 309 309 308 308 308 307 306 306
291 294 297 300 304 306 309 311 312 313 314 315 315 315 315 315 315 315 315 316 316 317 318 319 320 320 321 321 322 322 322 322 321 320 320 319 319 319 318 318 318 318 318 318 319 319 320 320 320 320 320 319 319 317 315 313 311 310 309 309 308 308 308 308 307 307 306 305 304
290 294 298 301 304 307 309 311 313 314 315 315 315 315 315 315 315 315 316 317 317 318 319 320 320 321 321 321 321 321 321 321 320 320 319 319 319 319 318 318 318 319 319 319 320 321 321 321 321 320 319 317 315 313 311 310 308 308 308 307 307 307 307 306 305 304 304 304 303
290 294 298 302 305 308 310 312 313 314 315 315 315 315 315 315 316 316 317 318 319 319 320 320 320 320 320 320 320 320 320 320 319 319 319 319 319 319 319 319 319 319 320 320 321 321 321 321 319 317 315 313 311 310 308 307 307 307 306 306 306 305 305 304 304 303 303 303 303
292 296 300 304 307 310 311 313 314 314 315 315 315 315 315 316 316 317 318 319 319 320 320 320 320 319 319 319 319 319 319 319 319 318 318 318 319 319 319 320 320 321 321 321 321 322 321 319 316 314 313 311 309 308 308 307 306 306 305 305 304 304 304 304 303 303 303 303 302
294 299 302 306 308 311 312 313 314 314 315 315 315 315 316 317 318 318 319 320 320 319 319 319 319 318 318 318 318 318 318 318 318 318 318 318 319 319 320 321 321 321 322 322 322 321 320 318 315 314 313 311 309 308 307 306 306 305 304 304 303 303 303 303 303 303 303 303 303
297 301 305 307 310 312 313 313 314 314 315 315 316 316 317 318 318 319 319 319 319 319 318 318 318 318 318 318 318 318 318 318 318 318 319 319 319 320 321 321 321 322 322 322 321 321 319 317 315 314 313 311 309 307 306 305 305 304 304 303 303 303 303 303 303 303 303 303 304
300 304 306 309 311 312 313 314 314 315 315 316 316 317 318 318 319 319 319 318 318 318 317 317 317 317 317 317 318 318 318 318 319 319 319 319 320 320 321 321 321 322 322 321 321 320 319 317 316 315 313 310 308 307 306 305 304 304 303 303 303 303 303 303 303 303 303 304 304
303 306 308 310 311 312 313 314 314 315 316 316 317 317 318 318 318 318 318 317 317 317 317 317 317 317 317 317 317 318 318 318 319 319 320 320 320 320 321 321 321 321 321 321 321 320 319 317 315 314 312 310 308 307 305 304 303 303 303 303 303 303 303 303 303 303 304 304 304
305 307 309 310 311 312 313 314 315 315 316 316 317 317 317 317 317 317 317 316 316 316 316 316 316 316 317 317 318 318 318 319 319 320 320 320 320 320 321 321 321 321 321 321 321 320 319 317 315 313 312 311 309 307 305 304 303 302 302 302 302 302 303 303 303 303 303 303 303
307 308 309 310 311 312 314 314 315 315 315 316 316 316 316 316 316 316 316 316 315 315 316 316 316 317 317 318 318 318 319 319 319 320 320 320 320 320 321 321 321 321 322 322 321 320 319 317 315 314 313 312 310 307 305 303 303 302 302 302 302 302 302 303 302 302 302 302 302
307 308 309 310 311 312 313 314 314 314 315 315 315 315 315 315 315 316 315 315 315 315 316 316 317 317 318 318 319 319 319 319 320 320 320 320 320 321 321 321 321 322 322 322 322 321 319 317 315 314 314 312 309 307 305 303 303 303 302 302 302 302 302 302 301 302 302 302 302
306 307 308 310 311 312 313 313 314 314 314 314 314 314 314 315 315 315 315 315 315 315 316 316 317 317 318 318 319 319 319 319 320 320 320 321 321 321 321 321 321 322 322 322 322 321 320 318 316 315 314 312 309 307 305 305 304 304 303 302 302 301 301 301 301 302 303 303 303
306 307 308 310 311 312 313 313 313 313 313 313 313 314 314 314 315 315 315 315 315 315 315 316 316 317 317 318 318 319 319 319 320 320 321 321 321 321 321 321 322 322 323 323 323 322 321 319 317 315 314 312 309 308 307 306 305 304 303 302 301 301 302 302 303 304 305 305 305
306 307 309 310 311 312 312 312 312 312 312 312 313 313 313 314 314 315 315 315 315 315 315 316 316 317 317 318 318 319 319 320 320 321 321 322 322 322 322 322 322 323 324 324 324 323 321 320 318 316 315 313 310 309 308 306 304 303 302 302 302 303 304 305 306 307 307 307 306
306 308 309 310 311 311 311 311 311 311 311 312 312 313 313 313 314 314 315 315 315 315 315 316 317 317 318 318 318 319 319 320 321 321 322 322 323 323 322 322 323 324 325 325 325 324 322 321 319 318 317 314 312 310 307 305 303 302 303 303 304 305 307 308 309 309 308 307 306
307 308 309 310 310 311 311 310 310 310 310 311 311 312 313 313 314 314 314 315 315 315 315 316 317 317 318 318 318 318 319 320 321 322 322 322 323 323 323 323 324 325 326 326 325 325 323 323 322 321 318 314 311 308 306 305 304 304 304 305 306 307 309 310 311 311 309 307 307
308 309 309 309 309 310 309 309 309 309 310 310 311 312 312 313 313 313 314 314 314 315 315 316 316 317 318 318 318 318 319 320 321 322 322 322 323 323 324 324 324 325 326 326 326 325 325 325 324 322 319 314 310 308 306 306 305 305 306 307 308 310 311 312 313 313 311 309 309
309 309 308 308 308 308 308 308 308 308 309 310 310 311 311 312 312 313 313 314 314 314 315 315 316 316 317 317 318 318 319 320 321 321 322 322 323 324 324 325 325 326 327 327 327 327 327 326 324 322 318 314 310 309 308 307 307 307 308 309 310 312 313 314 315 316 315 314 314
308 308 307 307 307 307 307 307 307 308 308 309 310 310 311 311 311 312 312 313 313 314 314 315 315 316 316 317 318 318 319 319 320 321 322 322 323 324 325 325 326 327 328 328 329 328 327 326 323 320 317 314 311 310 309 309 309 309 310 311 313 314 315 316 317 318 319 318 317